Terminal Aerodrome Forecast
Issued by NWS

Home | Current Version | Previous Version | Text Only | Print | Product List | Glossary On
Versions: 1 2 3 4 5 6 7 8 9 10 11 12
000
FTUS45 KABQ 180500
TAFROW
TAF
KROW 180524Z 1806/1906 28005KT P6SM SKC
     FM180900 32006KT P6SM FEW120
     FM181900 26017G27KT P6SM BKN120
     FM190200 28009KT P6SM BKN120=

USA.gov is the U.S. government's official web portal to all federal, state and local government web resources and services.